Regional Weather Roundup
Issued by NWS Cleveland, OH

Home | Current Version | Previous Version | Text Only | Print | Product List | Glossary On
Versions: 1 2 3 4 5 6 7 8 9 10 11 12 13 14 15 16 17 18 19 20 21 22 23 24 25 26 27 28 29 30 31 32 33 34 35 36 37 38 39 40 41 42 43 44 45 46 47 48 49 50
500
ASUS41 KCLE 290312
RWRCLE
OHIO REGIONAL WEATHER ROUNDUP
NATIONAL WEATHER SERVICE WILMINGTON, OH
1100 PM EDT THU APR 28 2016

NOTE: "FAIR" INDICATES FEW OR NO CLOUDS BELOW 12,000 FEET WITH NO
SIGNIFICANT WEATHER AND/OR OBSTRUCTIONS TO VISIBILITY.

OHZ001>008-015>018-024>027-034-035-043-044-290400-
   NORTHWEST OHIO

CITY           SKY/WX    TMP DP  RH WIND       PRES   REMARKS
DEFIANCE       CLOUDY    48  37  65 NE7       30.00S
FINDLAY        CLOUDY    47  41  80 N6        29.97R
TOLEDO EXPRESS CLOUDY    47  36  65 E8        30.00R
TOLEDO EXEC    CLOUDY    47  37  68 NE9       30.00R
LIMA           CLOUDY    46  45  96 N5        29.98R
$$

OHZ009>014-019>023-028>033-038-089-290400-
   NORTHEAST OHIO

CITY           SKY/WX    TMP DP  RH WIND       PRES   REMARKS
CLE-HOPKINS    CLOUDY    48  44  86 N7        29.99R
CLE-LAKEFRONT  CLOUDY    48  43  82 NE9       29.97R
CUY CO. ARPT   CLOUDY    46  45  93 NE7       29.98R
LORAIN-ELYRIA  CLOUDY    46  41  82 NE6       29.97F
ASHTABULA      MOCLDY    43  42  97 E6        29.98F
AKRON-CANTON   CLOUDY    47  43  86 E3        29.97R
WOOSTER        CLOUDY    48  45  89 E5        29.97R
MANSFIELD      CLOUDY    48  47  96 NE6       29.94F
YOUNGSTOWN     LGT RAIN  45  42  89 E8        29.95F FOG
$$

OHZ042-051>053-060>062-070>072-077>081-290400-
  SOUTHWEST OHIO

CITY           SKY/WX    TMP DP  RH WIND       PRES   REMARKS
CINC-COVINGTON FAIR      61  58  90 N6        29.94R
CINC-LUNKEN    FAIR      60  58  92 N3        29.94R
HAMILTON       FAIR      59  56  89 N5        29.95R
DAYTON         CLOUDY    51  50  96 N7        29.96S FOG
WRIGHT-PAT AFB NOT AVBL
DAYTON GENERAL FAIR      54  51  90 N6        29.94R FOG
WILMINGTON     FAIR      56  53  90 N5        29.94R FOG
$$

OHZ036-037-039>041-045>050-054>059-063>069-073>076-082>088-290400-
  CENTRAL AND SOUTHEAST OHIO

CITY           SKY/WX    TMP DP  RH WIND       PRES   REMARKS
COLUMBUS       CLOUDY    55  51  86 N7        29.93S
OSU AIRPORT    CLOUDY    54  51  90 N7        29.94R
BOLTON FIELD   CLOUDY    55  53  91 NW6       29.95R
RICKENBACK AFB CLOUDY    56  54  94 NE3       29.93S FOG
NEWARK         CLOUDY    56  50  80 N5        29.94R
MARION         LGT RAIN  49  47  93 NE8       29.95S FOG
LANCASTER      MOCLDY    56  53  90 N3        29.94R
ZANESVILLE     HVY RAIN  56  51  84 NE5       29.93R
NEW PHILLY     CLOUDY    49  45  86 NE5       29.96R
$$




USA.gov is the U.S. government's official web portal to all federal, state and local government web resources and services.